Date String (YYYY-MM-DD hh:mm:ss) UTC,Instrument flags,Ambient pressure (hPa),Sample flow (lpm),Bypass flow (lpm),Sample temperature (°C),Ambient temperature (°C),ASC tube jacket temperature (°C),LED temperature (°C),Box temperature (°C),Sample RH (%),Span deviation,Mass concentration (μg/m³),Mass concentration (μg/m³),Mass concentration (μg/m³)
DateTimeUTC,F1_M11,P_M11,Q1_M11,Q2_M11,T1_M11,T2_M11,T3_M11,T4_M11,T5_M11,U1_M11,ZSPAN_M11,X0_M11,X2_M11,X1_M11
2022-01-23 04:00:00,,0831.1,4.99,0.00,22.6,21.9,00.0,31.7,24.4,10.3,0000.0,0003.76,0002.39,0002.25
2022-01-23 04:01:00,,0831.2,5.01,0.00,22.6,21.9,00.0,31.7,24.4,10.3,0000.0,0003.33,0002.35,0002.20
2022-01-23 04:02:00,,0831.2,4.99,0.00,22.6,21.9,00.0,31.7,24.3,10.3,0000.0,0003.53,0002.30,0002.15
2022-01-23 04:03:00,,0831.2,5.01,0.00,22.6,21.9,00.0,31.7,24.3,10.3,0000.0,0003.45,0002.24,0002.10
2022-01-23 04:04:00,,0831.1,4.99,0.00,22.6,21.9,00.0,31.7,24.3,10.3,0000.0,0003.31,0002.18,0002.05
2022-01-23 04:05:00,,0831.1,5.00,0.00,22.6,21.8,00.0,31.7,24.3,10.3,0000.0,0003.29,0002.13,0002.00
2022-01-23 04:06:00,,0831.1,5.00,0.00,22.6,21.8,00.0,31.7,24.3,10.3,0000.0,0003.23,0002.09,0001.95
2022-01-23 04:07:00,,0831.1,5.00,0.00,22.6,21.8,00.0,31.7,24.3,10.3,0000.0,0003.09,0002.04,0001.91
2022-01-23 04:08:00,,0831.1,4.99,0.00,22.6,21.8,00.0,31.7,24.3,10.2,0000.0,0003.01,0001.97,0001.87
2022-01-23 04:09:00,,0831.1,4.99,0.00,22.5,21.8,00.0,31.7,24.3,09.9,0000.0,0004.36,0001.93,0001.82
2022-01-23 04:10:00,,0831.1,5.00,0.00,22.5,21.8,00.0,31.6,24.2,10.0,0000.0,0004.43,0001.91,0001.78
2022-01-23 04:11:00,,0831.0,5.01,0.00,22.5,21.8,00.0,31.6,24.2,10.0,0000.0,0004.32,0001.86,0001.74
2022-01-23 04:12:00,,0831.0,4.99,0.00,22.5,21.8,00.0,31.6,24.2,10.0,0000.0,0003.80,0001.80,0001.70
2022-01-23 04:13:00,,0831.0,5.00,0.00,22.5,21.8,00.0,31.6,24.2,09.9,0000.0,0003.47,0001.76,0001.67
2022-01-23 04:14:00,,0831.0,4.99,0.00,22.5,21.8,00.0,31.6,24.3,09.8,0000.0,0003.43,0001.72,0001.64
2022-01-23 04:15:00,,0831.0,5.02,0.00,22.5,21.8,00.0,31.6,24.3,09.7,0000.0,0003.44,0001.71,0001.62
2022-01-23 04:16:00,,0831.0,4.98,0.00,22.5,21.8,00.0,31.6,24.2,09.8,0000.0,0003.33,0001.66,0001.58
2022-01-23 04:17:00,,0831.0,5.01,0.00,22.5,21.8,00.0,31.6,24.2,09.8,0000.0,0003.43,0001.63,0001.55
2022-01-23 04:18:00,,0831.0,5.00,0.00,22.5,21.8,00.0,31.6,24.2,09.6,0000.0,0003.43,0001.60,0001.49
2022-01-23 04:19:00,,0831.0,5.00,0.00,22.5,21.7,00.0,31.6,24.2,09.7,0000.0,0003.41,0001.58,0001.47
2022-01-23 04:20:00,,0831.0,5.00,0.00,22.5,21.7,00.0,31.5,24.2,09.5,0000.0,0002.07,0001.59,0001.45
2022-01-23 04:21:00,,0831.0,5.00,0.00,22.4,21.7,00.0,31.5,24.2,09.5,0000.0,0001.98,0001.56,0001.43
2022-01-23 04:22:00,,0830.9,5.00,0.00,22.4,21.7,00.0,31.5,24.1,09.5,0000.0,0001.97,0001.54,0001.41
2022-01-23 04:23:00,,0830.9,5.00,0.00,22.4,21.7,00.0,31.5,24.1,09.4,0000.0,0001.96,0001.52,0001.39
2022-01-23 04:24:00,,0830.9,5.01,0.00,22.4,21.7,00.0,31.5,24.1,09.5,0000.0,0001.97,0001.50,0001.36
2022-01-23 04:25:00,,0830.9,4.99,0.00,22.4,21.7,00.0,31.5,24.2,09.4,0000.0,0001.94,0001.47,0001.33
2022-01-23 04:26:00,,0830.9,4.99,0.00,22.4,21.7,00.0,31.5,24.1,09.4,0000.0,0001.94,0001.45,0001.30
2022-01-23 04:27:00,,0830.8,5.01,0.00,22.4,21.7,00.0,31.5,24.1,09.4,0000.0,0001.95,0001.44,0001.29
2022-01-23 04:28:00,,0830.8,5.00,0.00,22.4,21.7,00.0,31.5,24.1,09.5,0000.0,0001.84,0001.42,0001.28
2022-01-23 04:29:00,,0830.8,4.98,0.00,22.4,21.7,00.0,31.5,24.1,09.5,0000.0,0001.81,0001.41,0001.28
2022-01-23 04:30:00,,0830.8,5.01,0.00,22.4,21.7,00.0,31.5,24.1,09.4,0000.0,0001.79,0001.40,0001.27
2022-01-23 04:31:00,,0830.9,4.99,0.00,22.4,21.6,00.0,31.4,24.1,09.5,0000.0,0001.72,0001.37,0001.25
2022-01-23 04:32:00,,0830.9,4.99,0.00,22.3,21.6,00.0,31.4,24.1,09.5,0000.0,0001.70,0001.37,0001.25
2022-01-23 04:33:00,,0830.9,5.00,0.00,22.3,21.6,00.0,31.4,24.1,09.4,0000.0,0001.69,0001.35,0001.22
2022-01-23 04:34:00,,0830.9,4.99,0.00,22.3,21.6,00.0,31.4,24.1,09.5,0000.0,0001.70,0001.34,0001.21
2022-01-23 04:35:00,,0830.9,5.01,0.00,22.3,21.6,00.0,31.4,24.0,09.5,0000.0,0002.16,0001.33,0001.21
2022-01-23 04:36:00,,0830.9,4.99,0.00,22.3,21.6,00.0,31.4,24.0,09.6,0000.0,0002.71,0001.35,0001.23
2022-01-23 04:37:00,,0830.9,5.01,0.00,22.3,21.5,00.0,31.4,24.0,09.6,0000.0,0002.68,0001.36,0001.24
2022-01-23 04:38:00,,0830.9,4.99,0.00,22.3,21.5,00.0,31.4,24.0,09.6,0000.0,0002.66,0001.36,0001.24
2022-01-23 04:39:00,,0830.9,5.01,0.00,22.3,21.5,00.0,31.4,24.0,09.6,0000.0,0002.64,0001.36,0001.25
2022-01-23 04:40:00,,0830.9,4.99,0.00,22.3,21.5,00.0,31.4,24.0,09.6,0000.0,0002.64,0001.37,0001.25
2022-01-23 04:41:00,,0830.9,5.00,0.00,22.2,21.5,00.0,31.4,24.0,09.7,0000.0,0002.62,0001.36,0001.25
2022-01-23 04:42:00,,0830.9,5.00,0.00,22.2,21.5,00.0,31.3,24.0,09.7,0000.0,0002.62,0001.37,0001.26
2022-01-23 04:43:00,,0830.9,5.01,0.00,22.2,21.5,00.0,31.3,24.0,09.8,0000.0,0002.66,0001.38,0001.26
2022-01-23 04:44:00,,0830.9,4.99,0.00,22.2,21.5,00.0,31.3,23.9,09.8,0000.0,0002.66,0001.37,0001.26
2022-01-23 04:45:00,,0830.9,5.01,0.00,22.2,21.5,00.0,31.3,24.0,09.9,0000.0,0002.64,0001.37,0001.27
2022-01-23 04:46:00,,0830.9,4.99,0.00,22.2,21.5,00.0,31.3,24.0,10.1,0000.0,0002.55,0001.40,0001.29
2022-01-23 04:47:00,,0830.9,5.00,0.00,22.2,21.5,00.0,31.3,23.9,10.1,0000.0,0001.71,0001.43,0001.29
2022-01-23 04:48:00,,0830.9,5.02,0.00,22.2,21.4,00.0,31.3,23.9,10.1,0000.0,0001.79,0001.46,0001.32
2022-01-23 04:49:00,,0830.9,4.98,0.00,22.2,21.4,00.0,31.3,23.9,09.9,0000.0,0001.89,0001.49,0001.32
2022-01-23 04:50:00,,0830.9,5.01,0.00,22.2,21.4,00.0,31.3,23.9,10.0,0000.0,0002.05,0001.55,0001.34
2022-01-23 04:51:00,,0830.9,5.00,0.00,22.2,21.4,00.0,31.3,23.9,09.9,0000.0,0002.08,0001.54,0001.34
2022-01-23 04:52:00,,0831.0,5.00,0.00,22.1,21.4,00.0,31.3,23.9,09.9,0000.0,0002.16,0001.54,0001.34
2022-01-23 04:53:00,,0830.9,4.99,0.00,22.1,21.4,00.0,31.2,23.9,10.0,0000.0,0002.15,0001.54,0001.34
2022-01-23 04:54:00,,0830.9,5.00,0.00,22.1,21.4,00.0,31.2,23.8,10.0,0000.0,0002.12,0001.53,0001.35
2022-01-23 04:55:00,,0830.9,5.01,0.00,22.1,21.3,00.0,31.2,23.8,09.9,0000.0,0002.14,0001.56,0001.37
2022-01-23 04:56:00,,0830.9,5.01,0.00,22.1,21.4,00.0,31.2,23.8,09.8,0000.0,0002.25,0001.57,0001.37
2022-01-23 04:57:00,,0831.0,4.99,0.00,22.2,21.8,00.0,31.3,24.0,09.6,0000.0,0002.28,0001.56,0001.37
2022-01-23 04:58:00,,0830.9,5.00,0.00,22.3,22.5,00.0,31.3,24.3,09.5,0000.0,0002.21,0001.53,0001.35
2022-01-23 04:59:00,,0831.0,5.01,0.00,22.4,22.9,00.0,31.3,24.5,09.5,0000.0,0002.14,0001.50,0001.33
